This demonstration page uses our WeatherBlox Daily Observations layout. Learn more.

Hourly Observations for April 14, 2016

Temp ( °F °C ) Dew Point ( °F °C ) Humidity (%) Winds ( mph kmh ) Pressure ( in mb ) Visibility ( mi km ) Precip ( " mm )
12:15 am 00:15 Clear 52 11.1 37 3 58 58 S 8 13 29.97 1015 10 16.0934 0 0
12:35 am 00:35 Clear 52 11.3 39 3.7 60 60 S 8 13 29.97 1015 10 16.0934 0 0
12:55 am 00:55 Clear 51 10.6 39 3.8 63 63 S 9 15 30 1016 10 16.0934 0 0
1:15 am 01:15 Clear 52 11.1 41 4.8 65 65 S 10 17 30 1016 10 16.0934 0 0
1:35 am 01:35 Clear 52 11.3 42 5.6 68 68 S 12 19 30 1016 10 16.0934 0 0
1:55 am 01:55 Clear 52 11.1 42 5.7 70 70 S 12 19 30 1016 10 16.0934 0 0
2:15 am 02:15 Clear 51 10.5 43 6 74 74 S 10 17 30 1016 10 16.0934 0 0
2:35 am 02:35 Clear 49 9.6 43 6 78 78 SSW 10 17 30 1016 10 16.0934 0 0
2:55 am 02:55 Clear 49 9.3 43 6.2 81 81 S 8 13 30 1016 10 16.0934 0 0
3:15 am 03:15 Clear 48 9 43 6.3 83 83 S 9 15 30.03 1017 10 16.0934 0 0
3:35 am 03:35 Clear 47 8.6 43 6.3 86 86 S 9 15 30.03 1017 10 16.0934 0 0
3:55 am 03:55 Clear 47 8.5 44 6.6 88 88 S 7 11 30.03 1017 10 16.0934 0 0
4:15 am 04:15 Clear 47 8.2 44 6.6 90 90 SSW 7 11 30.03 1017 10 16.0934 0 0
4:35 am 04:35 Clear 46 8 44 6.6 91 91 SSW 7 11 30.03 1017 10 16.0934 0 0
4:55 am 04:55 Clear 46 8 44 6.7 92 92 S 7 11 30.03 1017 10 16.0934 0 0
5:15 am 05:15 Clear 45 7 43 6 93 93 S 7 11 30.03 1017 10 16.0934 0 0
5:35 am 05:35 Partly Cloudy 45 7.2 44 6.4 95 95 S 6 9 30.03 1017 7 11.26538 0 0
5:55 am 05:55 Cloudy with Fog 47 8.1 45 7.4 95 95 S 9 15 30.03 1017 0.25 0.402335 0 0
6:15 am 06:15 Cloudy with Fog 48 8.7 47 8.1 96 96 S 9 15 30.03 1017 0.25 0.402335 0 0
6:35 am 06:35 Cloudy with Mist and Fog 49 9.3 48 8.7 96 96 S 10 17 30 1016 0.75 1.207005 0 0
6:55 am 06:55 Cloudy with Mist and Fog 49 9.6 48 9.1 97 97 S 14 22 30 1016 0.75 1.207005 0 0
7:15 am 07:15 Cloudy with Mist and Fog 49 9.7 49 9.2 97 97 SSW 14 22 30 1016 1 1.60934 0 0
7:35 am 07:35 Cloudy with Fog 50 10 49 9.5 97 97 S 10 17 30 1016 0.5 0.80467 0 0
7:55 am 07:55 Cloudy with Mist and Fog 50 10.1 49 9.6 97 97 S 8 13 30 1016 0.75 1.207005 0 0
8:15 am 08:15 Cloudy with Mist and Fog 51 10.5 50 10 97 97 S 10 17 30 1016 1 1.60934 0 0
8:35 am 08:35 Cloudy with Mist and Fog 51 10.7 50 10.2 97 97 S 9 15 30 1016 3 4.82802 0 0
8:55 am 08:55 Cloudy with Mist and Fog 52 11 51 10.5 97 97 S 10 17 30 1016 5 8.0467 0 0
9:15 am 09:15 Cloudy with Mist and Fog 53 11.5 51 10.6 94 94 S 10 17 30 1016 5 8.0467 0 0
9:35 am 09:35 Cloudy 53 11.7 51 10.5 92 92 S 13 20 30 1016 7 11.26538 0 0
9:55 am 09:55 Cloudy 54 12 51 10.5 91 91 SSE 16 26 30 1016 10 16.0934 0 0
10:15 am 10:15 Cloudy 54 12.2 51 10.3 88 88 S 13 20 30 1016 10 16.0934 0 0
10:35 am 10:35 Cloudy 55 12.8 51 10.5 86 86 S 15 24 29.97 1015 10 16.0934 0 0
10:55 am 10:55 Cloudy 56 13.6 51 10.5 82 82 S 14 22 29.97 1015 10 16.0934 0 0
11:15 am 11:15 Cloudy 57 14.1 51 10.3 78 78 S 16 26 29.97 1015 10 16.0934 0 0
11:35 am 11:35 Cloudy 58 14.7 50 10.2 75 75 S 16 26 29.97 1015 10 16.0934 0 0
11:55 am 11:55 Mostly Cloudy 60 15.6 50 10.1 70 70 S 17 28 29.97 1015 10 16.0934 0 0
12:15 pm 12:15 Partly Cloudy 61 16.3 50 9.8 66 66 S 16 26 29.91 1013 10 16.0934 0 0
12:35 pm 12:35 Sunny 63 17.4 50 9.9 62 62 S 18 30 29.91 1013 10 16.0934 0 0
12:55 pm 12:55 Sunny 65 18.2 49 9.6 57 57 S 15 24 29.88 1012 10 16.0934 0 0
1:15 pm 13:15 Sunny 65 18.3 48 9.1 55 55 S 15 24 29.88 1012 10 16.0934 0 0
1:35 pm 13:35 Sunny 65 18.6 48 8.8 53 53 S 21 33 29.88 1012 10 16.0934 0 0
1:55 pm 13:55 Sunny 67 19.2 47 8.5 50 50 S 22 35 29.83 1010 10 16.0934 0 0
2:15 pm 14:15 Sunny 68 20.1 47 8.5 47 47 S 16 26 29.83 1010 10 16.0934 0 0
2:35 pm 14:35 Sunny 68 20.2 47 8.3 46 46 SSE 18 30 29.83 1010 10 16.0934 0 0
2:55 pm 14:55 Sunny 70 20.9 47 8.6 45 45 SSE 23 37 29.8 1009 10 16.0934 0 0
3:15 pm 15:15 Sunny 70 21.2 47 8.5 44 44 SSE 21 33 29.8 1009 10 16.0934 0 0
3:35 pm 15:35 Sunny 71 21.5 46 7.8 41 41 SSE 20 31 29.8 1009 10 16.0934 0 0
3:55 pm 15:55 Sunny 71 21.5 46 7.7 41 41 SSE 24 39 29.77 1008 10 16.0934 0 0
4:15 pm 16:15 Sunny 71 21.6 45 7.3 40 40 S 20 31 29.74 1007 10 16.0934 0 0
4:35 pm 16:35 Sunny 71 21.6 45 7.4 40 40 S 22 35 29.71 1006 10 16.0934 0 0
4:55 pm 16:55 Sunny 71 21.6 46 7.6 41 41 SSE 28 44 29.71 1006 10 16.0934 0 0
5:15 pm 17:15 Sunny 71 21.9 46 8 41 41 SSE 18 30 29.71 1006 10 16.0934 0 0
5:35 pm 17:35 Sunny 71 21.8 46 8 41 41 S 18 30 29.71 1006 10 16.0934 0 0
5:55 pm 17:55 Sunny 71 21.5 46 7.6 41 41 SSE 26 43 29.71 1006 10 16.0934 0 0
6:15 pm 18:15 Sunny 71 21.5 46 7.7 41 41 SSE 26 43 29.71 1006 10 16.0934 0 0
6:35 pm 18:35 Sunny 70 21.1 46 8 43 43 SSE 23 37 29.68 1005 10 16.0934 0 0
6:55 pm 18:55 Sunny 69 20.8 46 7.8 43 43 SSE 24 39 29.71 1006 10 16.0934 0 0
7:15 pm 19:15 Sunny 68 20.2 46 7.5 44 44 SSE 22 35 29.71 1006 10 16.0934 0 0
7:35 pm 19:35 Sunny 67 19.7 46 7.5 45 45 SSE 23 37 29.71 1006 10 16.0934 0 0
7:55 pm 19:55 Sunny 66 18.8 46 7.5 48 48 SSE 18 30 29.71 1006 10 16.0934 0 0
8:15 pm 20:15 Sunny 65 18.1 45 7.2 49 49 SSE 15 24 29.71 1006 10 16.0934 0 0
8:35 pm 20:35 Clear 63 17.3 45 7.1 51 51 SSE 14 22 29.74 1007 10 16.0934 0 0
8:55 pm 20:55 Clear 62 16.4 45 7 54 54 SSE 12 19 29.74 1007 10 16.0934 0 0
9:15 pm 21:15 Clear 61 16.2 45 7.1 55 55 SSE 14 22 29.74 1007 10 16.0934 0 0
9:35 pm 21:35 Clear 61 16 45 7.1 56 56 SSE 16 26 29.74 1007 10 16.0934 0 0
9:55 pm 21:55 Clear 60 15.8 45 7.2 57 57 SSE 18 30 29.74 1007 10 16.0934 0 0
10:15 pm 22:15 Clear 60 15.8 46 7.5 58 58 SSE 18 30 29.74 1007 10 16.0934 0 0
10:35 pm 22:35 Clear 60 15.5 46 7.6 60 60 SSE 22 35 29.74 1007 10 16.0934 0 0
10:55 pm 22:55 Clear 59 15.2 46 7.8 62 62 SSE 15 24 29.74 1007 10 16.0934 0 0
11:15 pm 23:15 Clear 59 15 47 8.1 64 64 SSE 20 31 29.74 1007 10 16.0934 0 0
11:35 pm 23:35 Clear 58 14.5 47 8.1 66 66 SSE 20 31 29.74 1007 10 16.0934 0 0
11:55 pm 23:55 Clear 58 14.5 47 8.3 67 67 SSE 20 31 29.74 1007 10 16.0934 0 0

Powered by AerisWeather